Location: T�bingen+AIT
(48.5342°N, 9.0700°E)
Time: 02:56:21
(UTC+01:00)

Daily predictions for brighter satellites

Satellite Brightness Start Highest point End
(mag) Time Altitude Azimuth Time Altitude Azimuth Time Altitude Azimuth
Cosmos 1943 Rocket 4.5 03:44:43 18° NNE 03:45:14 18° NE 03:49:01 10° E
Lacrosse 5 rocket 4.5 03:48:46 14° ENE 03:48:46 14° ENE 03:49:39 10° ENE
Cosmos 2237 Rocket 4.1 04:10:00 22° NNE 04:10:00 22° NNE 04:11:54 10° NNE
Cosmos 2333 Rocket 4.2 04:25:23 19° N 04:25:23 19° N 04:27:05 10° NNE
Cosmos 2219 Rocket 4.3 04:27:58 16° N 04:27:58 16° N 04:29:11 10° NNE
USA 267 3.8 04:24:21 10° ENE 04:30:26 43° N 04:30:26 43° N
Cosmos 1825 4.4 04:40:17 19° SE 04:41:49 25° E 04:44:57 10° NE
Gbstr 26 Del rocket 4.5 04:43:46 33° ENE 04:43:46 33° ENE 04:46:09 10° ENE
NOSS 3-1 (C) 3.9 04:41:45 66° NW 04:43:01 82° SW 04:51:24 10° SE
SL-16 R/B 2.6 04:45:31 53° NNE 04:45:31 53° NNE 04:49:52 10° NNE
Meteor 2-3 Rocket 3.9 04:45:10 29° S 04:48:13 73° E 04:53:54 10° NNE
Cosmos 2123 Rocket 3.8 04:52:53 75° WNW 04:52:53 75° WNW 04:59:05 10° N
ATLAS 2AS CENTAUR R/B 4.1 04:50:37 24° NNW 04:54:43 37° NNE 05:01:50 10° E
Cosmos 1703 Rocket 4.2 04:55:52 52° ESE 04:55:52 52° ESE 04:59:29 10° SSE
USA 32 4.1 04:54:16 10° S 04:59:27 75° E 05:04:42 10° N
Cosmos 2369 Rocket 2.4 05:00:22 41° N 05:02:16 67° ENE 05:07:50 10° SE
CZ-4B R/B 3.2 04:57:11 10° NNE 05:02:54 90° WNW 05:07:30 16° SSW
Okean-O 4.4 04:59:17 10° NNE 05:03:19 32° E 05:07:18 10° SSE
USA 229 4.5 05:06:52 35° SW 05:06:52 35° SW 05:12:08 10° S
Cosmos 1408 4.1 05:08:18 30° NE 05:08:18 30° NE 05:10:27 10° NNE
Cosmos 1606 4.0 05:10:34 33° SSE 05:10:34 33° SSE 05:12:46 10° SSE
NOSS 3-1 (A) 3.9 05:06:10 43° NW 05:09:04 79° SW 05:17:26 10° SSE
Cosmos 1441 Rocket 4.5 05:08:24 31° NE 05:09:30 38° ENE 05:13:00 10° SE
Cosmos 1447 Rocket 4.4 05:07:57 10° S 05:14:16 90° NNE 05:20:34 10° N
USA 116 4.3 05:11:19 10° S 05:16:41 79° WSW 05:19:15 32° NNW
Cosmos 1992 Rocket 3.9 05:19:00 62° WSW 05:19:34 68° WNW 05:24:48 10° NNE
Celestis-02/Orion 38 4.4 05:14:29 10° SSE 05:19:37 73° WSW 05:20:36 56° NW
Okean O Rocket 3.7 05:15:39 10° N 05:16:40 16° N 05:16:40 16° N
COSMO-SKYMED 1 2.7 05:18:55 10° SSE 05:23:14 73° ENE 05:25:43 25° N
Lacrosse 5 rocket 1.5 05:24:29 67° NW 05:24:40 68° NNW 05:29:19 10° NE
Cosmos 1777 Rocket 4.2 05:22:01 23° NNW 05:25:16 70° ENE 05:30:27 10° SSE
Cosmos 1943 Rocket 2.4 05:26:16 22° NNW 05:30:04 71° ENE 05:35:43 10° SE
ADEOS II 4.2 05:29:52 10° N 05:30:30 13° NNW 05:30:30 13° NNW
PAYLOAD B 4.5 05:32:04 10° N 05:37:21 45° WNW 05:39:00 35° WSW
Okean 1-7 2.9 05:41:01 32° NNW 05:42:55 64° W 05:47:12 10° S
Cosmos 968 Rocket 3.9 05:42:39 39° W 05:43:07 40° WSW 05:48:00 10° S
Cosmos 405 Rocket 2.5 05:43:31 57° NW 05:44:05 69° W 05:47:48 10° S
Intercosmos 25 3.3 05:44:24 52° WSW 05:44:24 52° WSW 05:48:29 10° S
NOAA 6 4.0 05:39:07 10° NNE 05:44:17 83° ESE 05:49:24 10° SSW
Cosmos 1464 Rocket 4.0 05:38:06 10° N 05:44:24 88° W 05:50:45 10° S
Cosmos 1782 3.3 05:45:28 39° SW 05:45:28 39° SW 05:48:25 10° SSW
PAYLOAD A 4.5 05:41:31 10° NNE 05:46:46 67° ESE 05:52:07 10° S
ATLAS 5 CENTAUR R/B 2.3 05:44:31 10° SSW 05:49:04 60° SE 05:54:07 10° NE
Cosmos 1943 3.4 05:45:01 10° SSW 05:50:41 73° ESE 05:56:21 10° NNE
Cosmos 2237 Rocket 3.8 05:51:51 17° NNW 05:51:51 17° NNW 05:55:07 10° N
Meteor 2-6 Rocket 4.3 05:48:56 10° NNW 05:54:41 58° W 06:00:29 10° S
Cosmos 2233 Rocket 4.5 05:51:33 13° NNW 05:56:18 34° W 06:01:41 10° SSW
GEOS 3 Rocket 4.5 05:54:33 10° NNE 05:59:20 33° NNW 06:01:10 27° WNW
SeaSat 1 4.4 06:00:10 10° N 06:01:52 13° NNW 06:01:52 13° NNW
SL-8 R/B 3.9 06:00:21 21° WSW 06:03:27 67° SSE 06:08:12 10° E
SS 2 4.3 06:04:29 45° NW 06:05:15 88° SW 06:08:14 10° SE
Cosmos 2263 4.3 06:03:13 17° NW 06:07:34 58° WSW 06:13:12 10° S
Cosmos 2333 Rocket 4.1 06:07:24 12° NNW 06:07:46 12° NNW 06:09:52 10° N
Abrixas rocket 2.6 06:06:59 35° WSW 06:07:52 48° SSW 06:10:58 10° SE
EO 1 Del DPAF 3.8 06:04:57 10° SSW 06:08:28 34° W 06:09:33 29° WNW
Cosmos 1733 Rocket 3.8 06:04:43 10° S 06:08:57 56° E 06:13:15 10° NNE
SKYMED 2 4.1 06:07:21 10° SSW 06:11:23 37° W 06:14:18 17° NW
Thor Agena Rocket 3.5 06:07:23 10° SSE 06:12:27 84° ENE 06:17:32 10° NNW
USA 267 3.8 06:06:33 10° E 06:12:48 49° NNE 06:17:46 16° NW
IDEFIX/ARIANE 42P 2.5 06:12:06 10° N 06:17:18 75° WNW 06:22:28 10° SSW
Cosmos 1825 3.0 06:15:52 21° WSW 06:17:18 27° WNW 06:20:35 10° NNW
Cosmos 909 Rocket 4.5 06:13:28 10° NW 06:21:38 79° NE 06:28:15 10° SE
Cosmos 1862 3.4 06:20:13 10° SSW 06:24:04 50° WNW 06:27:57 10° N
Meteor 1-27 Rocket 4.0 06:22:30 10° NNW 06:28:06 48° W 06:33:34 10° SSW
SL-16 R/B 3.6 06:27:27 17° WNW 06:29:14 19° NW 06:33:15 10° N
Gbstr 26 Del rocket 2.9 06:26:20 19° WNW 06:29:17 70° NNE 06:33:06 10° E
Cosmos 1603 4.3 06:28:42 10° WSW 06:33:52 36° NW 06:39:08 10° NNE
MSX 3.8 06:29:29 10° NNE 06:35:18 84° WNW 06:41:03 10° SSW
Genesis I 3.1 06:32:44 10° SW 06:36:39 81° NW 06:40:38 10° NE
Okean-O 3.4 06:35:51 10° N 06:39:46 31° WNW 06:43:39 10° SW
Cosmos 1975 Rocket 4.5 06:37:23 10° N 06:41:39 40° ENE 06:45:52 10° SE
Cosmos 1408 4.4 06:42:54 14° NW 06:42:54 14° NW 06:44:18 10° NNW
CZ-2C R/B 2.6 06:39:10 10° N 06:44:15 56° WNW 06:49:12 10° SSW
Cosmos 2369 Rocket 3.4 06:42:13 12° WNW 06:45:46 22° W 06:49:56 10° SSW
ATLAS 2AS CENTAUR R/B 3.1 06:38:39 10° NW 06:46:46 89° NE 06:54:16 10° SE
Lacrosse 4 Rocket 1.4 06:46:56 10° SW 06:51:16 82° WNW 06:55:32 10° NNE
Cosmos 1812 2.7 06:48:37 10° NNW 06:52:31 77° W 06:56:23 10° S
Okean 3 3.4 06:48:20 10° NNW 06:52:32 70° W 06:56:44 10° S
Cosmos 1484 Rocket 2.9 06:48:49 10° NNE 06:52:52 89° WNW 06:56:53 10° SSW
CZ-4 R/B 1.8 06:53:05 10° NNE 06:57:00 66° ESE 07:00:59 10° S
Cosmos 1634 Rocket 4.0 06:51:37 10° N 06:57:54 81° W 07:04:12 10° S
Cosmos 2208 Rocket 4.1 06:54:33 10° SSW 06:59:46 82° ESE 07:04:58 10° NNE
COSMO-SKYMED 1 4.3 06:57:48 10° WSW 06:59:55 13° W 07:02:02 10° WNW
Lacrosse 5 rocket 2.6 07:00:25 10° WNW 07:04:35 31° N 07:08:42 10° NE
Cosmos 1898 Rocket 3.5 07:01:46 10° NNW 07:07:03 76° WSW 07:12:20 10° SSE
Cosmos 1674 Rocket 4.2 07:04:34 10° NNW 07:08:31 35° W 07:12:27 10° SSW
ERS-2 3.7 07:05:38 10° NNE 07:09:08 40° E 07:12:37 10° S
Cosmos 2150 Rocket 4.4 07:04:39 10° NNW 07:10:08 74° ENE 07:15:29 10° SSE
Cosmos 1818 4.1 07:05:33 10° NW 07:10:42 43° WSW 07:15:49 10° S
Cosmos 1570 Rocket 4.0 07:06:43 10° SSW 07:12:02 73° WNW 07:17:26 10° NNE
